Theta_e
300 300 300 300 300 300 298 292 287 303 303 288 288 283 287 291 290 292 289 289 289 288 289 288 288 288 292 295 294 290 295 291 289 292 298 300 298 293 293 287 287 292 290 290
300 300 300 300 300 299 298 289 290 303 301 283 284 288 287 289 288 288 287 286 289 290 287 285 288 289 294 296 294 291 293 290 285 288 293 298 294 297 296 295 294 289 287 290
300 300 300 300 300 299 298 290 284 291 293 292 287 285 286 285 290 289 289 288 289 287 287 289 287 287 291 295 294 297 295 289 287 285 287 292 291 294 296 295 290 290 291 293
300 300 300 300 300 299 296 290 286 290 285 286 287 287 287 285 284 289 289 286 286 286 283 285 285 288 289 291 295 293 293 284 287 288 290 290 289 290 292 291 293 289 292 294
299 300 300 300 300 299 292 287 287 289 287 289 286 287 285 284 287 287 286 285 287 287 284 285 283 287 288 288 291 291 294 286 288 285 288 288 287 289 290 291 291 291 293 293
298 299 299 300 300 299 291 294 294 290 286 286 285 285 286 285 288 289 291 289 288 286 288 292 292 294 294 293 291 290 290 288 286 282 288 287 284 288 289 290 291 291 288 294
299 299 299 300 300 299 297 294 293 287 282 284 284 286 287 287 288 286 290 291 288 292 298 298 296 294 293 292 291 293 289 288 288 283 285 277 289 294 294 292 293 294 298 297
298 299 299 299 299 299 298 297 293 288 282 285 285 286 286 289 290 289 289 292 295 297 294 288 285 285 286 288 290 290 292 288 284 281 281 285 288 292 293 293 293 300 299 301
298 299 299 299 299 299 299 297 299 292 285 284 288 286 288 285 286 288 290 295 298 297 290 286 280 279 283 283 286 292 291 292 287 284 279 278 290 295 297 297 288 299 299 299
299 299 300 300 300 300 299 295 300 293 286 289 289 286 286 289 288 286 290 291 292 296 287 282 281 281 288 283 283 284 285 286 282 283 282 286 294 296 298 285 289 299 300 300
299 299 300 300 300 300 299 295 300 294 288 290 292 292 289 289 289 285 290 290 291 289 284 283 284 284 286 286 288 286 285 283 283 284 281 279 297 296 291 296 300 300 301 301
299 299 300 300 300 301 300 293 300 300 291 290 296 296 297 295 294 291 292 289 285 292 288 288 289 286 290 287 282 293 285 289 287 287 287 297 299 300 302 302 299 300 301 301
299 299 300 300 300 301 300 296 298 295 289 290 292 291 297 300 299 301 290 292 293 293 294 291 290 285 290 285 286 288 292 295 289 290 294 296 299 301 302 301 300 301 302 302
299 299 300 300 300 302 301 295 297 296 291 284 288 298 295 299 300 299 299 296 295 294 294 288 288 286 292 288 290 290 293 293 292 292 295 297 299 300 301 301 302 302 303 301
299 300 300 300 300 301 300 299 297 299 291 286 288 295 297 300 298 297 298 297 295 294 289 287 285 291 292 293 292 289 295 293 291 289 297 296 298 300 302 301 301 302 300 299
299 300 300 301 301 301 294 287 296 299 299 289 285 296 295 297 298 297 296 296 296 295 289 287 291 295 292 287 287 294 297 299 299 296 299 299 300 301 302 301 301 300 299 299
299 300 300 301 300 297 290 291 296 299 298 287 286 287 294 296 297 297 297 298 296 293 290 288 289 292 293 289 285 292 295 297 298 299 300 298 300 298 301 302 302 300 298 295
299 300 300 301 300 298 292 299 300 299 292 290 285 286 289 296 290 290 297 291 292 290 290 291 290 292 291 285 291 294 295 297 298 299 300 299 300 301 300 301 301 299 298 295
300 300 300 298 294 289 293 300 300 300 293 286 285 283 283 293 290 291 292 292 285 291 286 289 291 288 285 290 293 294 295 294 294 296 298 298 297 296 297 297 297 297 297 295
300 297 287 284 291 300 299 294 290 290 291 292 285 292 286 291 289 288 287 289 287 284 287 292 287 286 292 293 292 291 292 292 293 290 290 291 291 292 293 293 294 295 295 291
293 288 288 295 299 294 288 285 285 286 284 289 290 291 288 295 287 285 289 286 288 283 287 286 285 285 285 288 288 289 290 290 290 290 290 290 288 287 288 289 289 288 288 285
296 295 297 296 290 287 284 283 285 285 284 291 290 291 293 294 297 289 289 286 287 281 291 287 283 281 283 284 284 285 286 286 285 286 285 285 284 284 284 283 282 281 280 279
298 294 289 288 286 282 281 279 282 284 290 291 292 288 290 293 294 291 289 283 283 291 285 282 279 280 282 282 282 282 283 282 282 282 282 282 280 280 281 280 279 279 277 276
290 286 281 283 282 283 281 282 285 286 291 291 292 290 289 290 287 288 283 287 288 282 281 276 277 279 280 280 280 280 279 280 279 279 279 278 278 277 277 277 277 276 275 274
284 285 278 279 281 282 282 284 285 284 287 288 290 291 290 287 284 285 285 283 281 278 275 277 278 279 279 278 279 278 278 279 278 278 277 275 275 274 274 274 274 273 272 271
281 280 279 282 281 280 281 282 282 283 283 286 289 287 285 284 285 283 279 279 274 275 278 278 279 278 278 278 279 278 278 278 278 277 277 275 274 273 273 273 273 273 273 272
279 276 280 282 280 279 280 281 280 284 283 285 286 283 280 285 280 276 277 274 276 278 278 279 278 277 277 278 278 278 277 277 276 275 275 275 275 274 272 270 271 271 271 271
Wind_Speed
16 14 13 13 13 6 4 3 5 3 10 8 8 14 20 22 20 15 7 14 16 16 11 7 13 3 6 11 6 6 7 5 5 13 7 1 6 18 19 11 12 8 10 7
15 15 14 11 10 5 3 4 9 2 3 7 12 14 20 21 18 17 8 13 18 18 10 7 10 6 10 9 8 7 8 4 6 7 5 8 8 10 10 16 11 14 6 6
16 15 11 9 9 8 4 4 4 7 4 10 15 11 18 16 15 15 13 14 18 18 14 11 8 3 3 4 5 6 5 6 10 7 9 10 4 9 6 7 5 10 12 12
15 16 12 11 10 10 3 3 6 4 3 10 15 17 9 11 15 9 13 16 20 17 15 15 18 14 14 8 6 3 3 6 13 16 14 13 12 12 11 11 8 8 12 15
16 15 12 12 12 10 3 3 4 8 12 15 11 15 16 17 14 12 14 16 15 19 19 16 18 19 13 9 7 10 2 8 10 14 16 15 17 17 18 16 15 15 15 19
16 17 14 13 14 14 4 4 10 6 7 8 14 12 13 17 16 7 16 11 11 15 15 11 15 6 8 6 9 2 2 4 7 10 12 14 13 15 16 15 16 15 17 14
16 17 15 14 15 15 7 5 7 6 13 13 13 13 13 13 13 9 15 13 10 10 8 9 8 8 8 10 11 6 3 7 4 5 8 8 9 8 4 6 8 10 13 14
17 15 14 15 15 16 9 8 6 5 10 14 17 18 15 11 10 12 12 13 11 9 5 6 7 8 10 16 16 15 12 8 4 4 6 11 16 10 4 6 6 11 10 14
17 17 16 17 18 17 9 8 7 5 6 12 17 11 17 10 11 12 13 13 9 6 2 2 5 7 9 9 8 22 16 11 7 5 6 5 7 8 7 6 4 9 8 9
18 18 19 19 20 22 13 8 12 6 7 15 17 11 12 14 8 8 10 8 7 6 2 4 6 11 3 5 8 18 15 11 13 10 6 8 5 10 5 4 4 7 10 9
21 20 20 21 21 23 16 9 11 9 6 14 18 17 17 13 8 11 6 5 5 2 5 4 7 7 6 6 4 13 13 10 7 8 6 10 9 8 2 2 4 7 7 6
22 21 21 21 21 22 21 10 10 9 7 8 9 18 21 20 16 10 4 4 4 4 5 6 4 5 4 8 3 15 5 8 7 10 6 10 10 10 9 6 5 6 5 7
22 21 21 21 21 23 21 9 9 7 6 7 13 18 17 16 18 9 4 2 2 4 9 4 3 5 6 4 7 3 6 9 3 4 8 10 14 8 14 11 6 8 8 11
22 21 20 18 19 22 24 10 6 9 2 5 12 14 22 24 16 17 14 10 4 6 1 1 3 3 4 4 7 12 4 3 9 10 13 5 8 10 16 13 8 5 11 9
21 20 19 19 17 15 10 7 8 13 9 5 8 14 16 12 16 20 16 11 11 6 2 2 4 5 7 6 6 8 9 10 5 4 7 1 9 8 5 7 8 12 8 9
21 19 18 16 15 12 5 2 5 12 11 3 4 2 3 10 16 15 14 13 9 4 3 2 5 11 4 4 4 8 7 10 2 5 5 3 5 9 16 11 8 9 9 9
21 19 16 16 18 6 3 1 1 16 8 2 3 4 5 9 10 9 7 11 3 3 2 4 5 6 3 3 6 9 6 15 10 10 8 8 14 10 11 11 11 8 8 9
22 18 16 16 21 7 2 2 6 15 4 3 4 4 2 4 3 4 3 3 3 4 2 3 5 3 4 5 10 9 9 13 11 15 12 9 9 11 14 10 7 7 4 5
22 18 18 11 4 3 4 10 17 4 3 5 4 3 2 5 1 2 3 3 3 4 4 4 4 4 6 7 7 9 10 9 11 13 11 12 12 11 12 13 15 13 9 7
24 10 3 3 4 20 12 6 4 3 2 3 4 4 4 5 2 2 3 3 3 3 6 4 5 5 9 10 10 9 10 11 11 10 12 13 12 13 13 13 11 12 7 11
3 4 3 5 15 4 1 3 4 4 4 5 5 6 5 5 3 3 3 3 4 4 6 7 6 3 6 9 10 11 12 12 12 11 10 11 11 10 11 11 12 12 11 10
8 9 8 4 3 3 5 5 5 6 6 6 6 6 6 4 3 2 4 3 2 5 8 4 3 4 9 11 12 12 12 12 12 12 11 11 10 10 8 8 7 8 9 9
6 4 4 4 4 6 5 8 5 5 4 3 2 4 3 3 1 2 2 2 4 1 3 3 5 6 9 10 10 9 11 11 10 10 10 10 9 10 10 7 8 8 9 9
3 4 5 2 4 3 4 5 4 3 2 4 5 4 3 2 2 2 3 4 2 3 4 5 5 8 9 8 8 9 10 10 9 9 9 10 9 8 8 7 6 8 10 9
5 3 4 4 3 5 3 2 1 4 3 3 3 2 3 3 3 3 3 5 2 6 5 4 6 9 9 9 9 9 9 8 7 7 7 8 7 8 8 8 9 10 10 11
4 7 3 2 6 5 4 5 5 5 4 3 1 2 3 3 2 3 4 5 6 4 4 5 6 8 7 7 7 6 6 7 7 7 7 7 6 7 8 8 9 9 10 10
5 4 7 4 7 6 4 5 5 5 3 1 1 1 5 2 3 4 6 5 5 6 6 5 6 6 7 6 7 7 6 6 6 7 7 8 8 8 9 12 12 13 13 13
Wind_Direction
288 285 285 283 270 298 221 266 246 178 139 197 218 237 249 262 271 254 211 280 284 293 332 297 296 1 70 22 356 321 65 307 266 264 180 233 315 221 230 235 239 241 251 236
279 284 276 267 265 235 285 249 262 203 226 223 228 236 250 255 262 254 261 261 267 274 274 290 254 324 51 23 12 23 354 264 284 260 259 233 246 250 238 228 252 254 272 288
274 277 269 251 243 224 251 283 267 195 212 255 272 270 251 244 253 257 264 264 273 264 274 256 281 273 88 36 357 352 343 288 288 281 337 347 292 288 317 285 256 244 250 260
277 272 262 256 233 208 215 217 245 280 233 231 248 258 261 271 250 236 258 255 263 264 247 263 272 269 279 235 171 232 235 271 287 287 287 290 284 282 279 278 271 273 281 284
272 273 260 252 232 192 251 245 253 279 269 276 264 254 253 260 284 273 222 253 253 247 260 260 268 266 252 247 237 217 287 263 268 272 278 272 275 270 269 264 264 262 259 265
266 258 258 245 236 196 210 223 275 290 274 307 278 254 260 252 249 271 283 236 276 278 254 280 242 313 315 311 311 44 309 250 272 271 274 267 263 253 256 259 255 256 259 270
258 254 245 237 237 212 219 239 265 259 264 263 268 292 302 285 289 302 275 287 190 261 355 286 275 260 264 261 265 233 221 266 281 281 293 239 247 263 325 311 291 290 311 250
259 252 243 237 238 228 230 232 229 263 259 270 269 257 262 257 278 259 252 265 256 290 266 253 255 236 247 242 233 235 231 226 253 241 249 275 299 298 268 2 57 35 11 9
259 252 245 237 233 230 230 234 232 249 274 258 266 283 291 254 268 266 258 237 245 173 285 325 246 219 207 187 210 211 213 213 228 197 241 242 84 63 39 324 194 46 22 23
256 252 248 243 235 228 222 233 219 238 256 256 271 264 260 286 287 282 293 291 214 223 209 243 264 256 194 242 216 174 193 193 212 232 252 269 250 316 358 246 48 2 1 3
254 251 248 243 237 225 217 224 221 207 245 264 270 269 269 276 255 259 287 330 212 199 187 243 244 263 251 213 231 180 173 185 190 231 246 251 272 228 332 63 286 317 342 36
251 249 245 242 235 227 210 228 212 212 237 279 284 266 271 272 277 279 275 267 11 227 217 231 288 268 307 294 267 149 206 204 187 190 215 265 330 355 330 275 314 323 353 337
249 245 242 241 235 230 211 217 202 187 233 269 261 248 249 259 263 266 218 248 282 28 358 348 302 291 346 262 268 213 301 214 202 15 272 248 254 245 251 283 319 25 5 18
243 238 237 234 239 227 210 204 188 183 148 229 262 235 234 245 249 241 235 234 182 246 320 274 295 277 204 310 317 314 249 356 248 234 261 10 335 33 4 344 330 325 46 14
232 229 228 221 224 221 207 194 192 187 193 215 253 260 255 216 225 244 254 251 241 253 257 257 266 277 286 283 287 271 268 235 212 259 55 303 288 30 300 325 1 54 26 3
218 219 220 212 211 187 95 87 190 199 211 289 267 260 274 258 225 228 228 227 252 211 168 225 249 263 274 294 284 271 337 306 274 259 328 325 291 349 11 14 351 56 48 36
205 208 207 198 169 139 161 258 99 174 168 199 254 254 202 221 232 233 216 208 171 171 202 211 253 270 305 266 248 266 226 270 275 308 10 353 23 5 334 14 69 81 81 68
188 192 187 175 160 133 242 287 168 153 115 197 243 246 176 150 214 202 185 151 148 174 203 205 233 256 183 247 262 267 302 339 13 16 11 359 343 3 7 360 18 7 15 84
172 168 163 145 142 166 189 137 157 148 179 181 216 241 215 168 173 118 124 111 163 168 200 209 191 225 218 247 336 35 32 14 358 350 350 7 7 352 355 350 342 342 340 116
152 118 111 153 180 113 107 148 150 163 247 226 224 216 179 171 159 133 134 158 203 205 201 179 206 232 241 66 44 30 19 10 4 1 1 354 349 348 342 339 336 317 355 95
98 133 149 103 127 74 111 172 167 180 203 217 214 207 160 183 170 143 227 173 183 220 173 199 194 148 47 45 41 28 17 13 8 6 1 2 355 344 342 343 11 31 58 94
130 110 104 117 112 179 205 178 163 205 210 179 198 187 182 163 164 149 181 216 194 251 138 198 166 73 32 31 29 17 15 11 4 8 11 12 11 1 7 22 45 58 81 88
140 104 103 176 150 188 203 165 174 191 143 167 181 123 97 171 288 132 174 206 242 119 205 103 57 46 37 21 14 4 12 13 13 13 15 22 29 22 24 50 59 77 83 94
101 110 111 262 167 68 37 13 26 43 2 163 173 131 132 112 157 141 202 229 225 234 215 77 62 34 23 11 8 8 7 13 20 22 29 31 32 43 45 50 65 88 94 85
62 28 71 71 78 55 29 328 82 19 342 330 139 175 146 129 175 200 230 204 213 35 61 65 42 28 16 12 14 14 8 4 27 37 46 46 45 61 60 60 72 85 90 91
65 37 99 26 114 90 57 22 58 11 343 303 307 205 181 156 185 199 11 331 46 59 65 55 32 25 19 6 25 28 22 18 34 47 61 66 67 78 85 88 87 89 94 97
57 56 12 39 61 54 45 19 3 326 310 31 24 46 34 138 75 69 17 34 63 57 62 55 41 30 15 19 38 30 42 50 60 68 68 82 89 90 84 81 76 78 77 78